STARLINK-2474, 48132

Orbit data source: Space-Track

STARLINK-2474, 48132 is a payload satellite owned by SpaceX/Seattle (US) in LEO that was launched on Wed, 07 Apr 2021 UTC via an FALCON 9 launch vehicle from the Air Force Eastern Test Range (AFETR). Payload-class satellites include a variety of spacecraft equipped with specific instruments for various scientific and technological missions. These include communications satellites like Starlink; space stations such as the ISS; scientific satellites like the Hubble; Earth observation satellites from companies like Planet Labs, Umbra, and HawkEye 360; GPS; miniature CubeSats for education and research; and military/defense satellites.

Loading next visibility...
Identifier
48132, 2021-027AS
Orbit
LEO
Country
Flag of USUS
Related business
Manufacturer
SpaceX/Seattle
Mission
Operational Commercial Communications
Bus & Motor
STARLINK, Unknown motor
Mass
260 kg wet, ~248 kg dry
Launch date (UTC)
2021-04-07 (5 years ago)
Launch vehicle
FALCON 9
Launch site
Air Force Eastern Test Range (AFETR)
Object type
Payload
Rocket body
Debris
Shape & HBR
Box + 1 Pan, 10.1 m
Radar Cross Section
13.562 m², Large (>1 m²)

Expand to show TLE details & history
Last TLE update: 2 days ago

TLE from 2 days ago
0 STARLINK-2474
1 48132U 21027AS  26170.94507066  .00000518  00000-0  28464-4 0  9995
2 48132  53.1605  52.0652 0001207  76.4939 283.6197 15.31699732288132
Epoch: 2026-06-19T22:40Z
TLE epoch observation values (Epoch: 2026-06-19T22:40:54.105Z)
Latitude
0.00001°
Longitude
163.673°
Altitude
471.447 km
Speed
7.632 km/s
True Right ascension
03h 28m 15s
True Declination
0° 00' 00"
Sunlit
Object was in daylight at epoch
Visualization orbit readout
Latitude
Unknown
Longitude
Unknown
Altitude
Unknown
Speed
Unknown
Apparent Right ascension
Unknown
Apparent Declination
Unknown
Sunlit
N/A
Visualization observer readout
Local Sidereal Time
21:32:45
Azimuth
Unknown
Elevation
Unknown
Doppler factor
Unknown
Orbital elements
Apogee altitude
471.824 km
Perigee altitude
470.171 km
Semi-major axis
6,849.134 km
Eccentricity
0.00012
Inclination
53.1605°
RAAN
52.0652°
Arg. of periapsis
76.4939°
True anomaly
283.60626°
Mean anomaly
283.6197°
Eccentric anomaly
283.61298°
Mean motion
3.82904 °/min
Orbital period
94.02 mins
BSTAR
0.000028464
Loading maneuver chart data...
Computing Atmospheric mass density...
Loading historical data...
Loading historical data...
Loading historical data...
Loading historical data...
Loading historical data...
Loading historical data...
Loading historical data...

Documentation

Showing up to 5 results
|